STARLINK-35829, 66350

Orbit data source: Space-Track

STARLINK-35829, 66350 is a payload satellite owned by SpaceX/Seattle (US) in LEO that was launched on Thu, 06 Nov 2025 UTC via an FALCON 9 launch vehicle from the Air Force Western Test Range (AFWTR). Payload-class satellites include a variety of spacecraft equipped with specific instruments for various scientific and technological missions. These include communications satellites like Starlink; space stations such as the ISS; scientific satellites like the Hubble; Earth observation satellites from companies like Planet Labs, Umbra, and HawkEye 360; GPS; miniature CubeSats for education and research; and military/defense satellites.

Loading next visibility...
Identifier
66350, 2025-254C
Orbit
LEO
Country
Flag of USUS
Related business
Manufacturer
SpaceX/Seattle
Mission
Operational Commercial Communications
Bus & Motor
STARLINK V2MO, Unknown motor
Mass
575 kg wet, ~530 kg dry
Launch date (UTC)
2025-11-06 (7 months ago)
Launch vehicle
FALCON 9
Launch site
Air Force Western Test Range (AFWTR)
Object type
Payload
Rocket body
Debris
Shape & HBR
Box + 2 Pan, 17.7 m
Radar Cross Section
36.964 m², Large (>1 m²)

Expand to show TLE details & history
Last TLE update: 2 days ago

TLE from 2 days ago
0 STARLINK-35829
1 66350U 25254C   26170.14554805  .00019000  00000-0  62217-3 0  9997
2 66350  53.1590 120.8755 0001124  90.0566 270.0564 15.31714678 34517
Epoch: 2026-06-19T03:29Z
TLE epoch observation values (Epoch: 2026-06-19T03:29:35.351Z)
Latitude
-0.00004°
Longitude
161.09945°
Altitude
471.596 km
Speed
7.631 km/s
True Right ascension
08h 03m 30s
True Declination
0° 00' 00"
Sunlit
Object was in daylight at epoch
Visualization orbit readout
Latitude
Unknown
Longitude
Unknown
Altitude
Unknown
Speed
Unknown
Apparent Right ascension
Unknown
Apparent Declination
Unknown
Sunlit
N/A
Visualization observer readout
Local Sidereal Time
07:18:15
Azimuth
Unknown
Elevation
Unknown
Doppler factor
Unknown
Orbital elements
Apogee altitude
471.723 km
Perigee altitude
470.183 km
Semi-major axis
6,849.09 km
Eccentricity
0.00011
Inclination
53.159°
RAAN
120.8755°
Arg. of periapsis
90.0566°
True anomaly
270.04352°
Mean anomaly
270.0564°
Eccentric anomaly
270.04996°
Mean motion
3.82907 °/min
Orbital period
94.02 mins
BSTAR
0.00062217
Loading maneuver chart data...
Computing Atmospheric mass density...
Loading historical data...
Loading historical data...
Loading historical data...
Loading historical data...
Loading historical data...
Loading historical data...
Loading historical data...

Documentation

Showing up to 5 results
|